Погода в Борисове

Погода в Борисове : погода сейчас, прогноз погоды и архив. Всё, что Вы хотите узнать о погоде в Борисове!

Хотите узнать прогноз погоды в Борисове? Тогда Вам сюда: Погода в Борисове

Поиск расширенной информации на нашем сайте:

Другие новости

Новости СМИ2

Главная страница сайта

Новости сайта

03.07.2017

Напоминаем, что на нашем специализированном сайте Метеоцентр.Азия вы можете получить высокодетализированные автоматические прогнозы погоды по пунктам России, СНГ и мира в авиационном формате (включающие направление и скорость ветра, видимость, явления погоды, количество и форму облачности, нижнюю и верхнюю границу облачности).


Погода в Борисове - сегодня

Время (UTC), дата Ветер
(°,м/с) 
Видим.   Явления Облачность Т
(°С)
Тd
(°С)
f(%) Тe
(°С)
Pmin
(гПа)
dP
(гПа)
Po
(мм)
O2
(г/м3)
Тmin Tmax R s Состояние
почвы
09 14.08.18 150 (ЮВ) 35000 м    8/0 средняя, верхняя 
[Ac trans|Ci sp]
+23.9 +14.2 55 +31  1012.5  743  273           
12 14.08.18 160 (Ю) 35000 м    9/3 600 м верхняя 
[Cu hum|Ci sp]
+27.4 +12.6 40 +32  1011.4  -0.7  743  270           
15 14.08.18 140 (ЮВ) 30000 м    9/3 600 м верхняя 
[Cu hum|Ci sp]
+27.3 +11.9 38 +31  1009.8  -1.6  742  269           
18 14.08.18 180 (Ю) 35000 м    9/6 600 м верхняя 
[Sc|Ci fib]
+23.4 +12.9 52 +29  1010  -0.1  741  273    +28.1       
21 14.08.18 140 (ЮВ) 35000 м    10/10 1000 м 
[Sc]
+20.4 +14.8 70 +29  1009.1  -1.2  741  275           
00 15.08.18 150 (ЮВ) 1{11}  12000 м  {гроза, ливн. осадки}  10/10 600 м кучево-дожд. 
[Cb cap]
+17.4 +16.8 96 +31  1008.8  -0.5  740  277         
06 15.08.18 250 (З) 12000 м    10/10 300 м 
[St]
+17.8 +16.9 94 +31  1010.3  1.3  741  277  +16.8       
09 15.08.18 290 (З) 35000 м    8/8 600 м 
[Cu Sc]
+21.6 +15.7 69 +32  1010.9  0.9  742  274           
12 15.08.18 240 (ЮЗ) 35000 м    9/8 600 м кучево-дожд., верхняя 
[Cb calv|Ci fib]
+23.4 +14.4 57 +31  1011.7  0.9  743  273           
15 15.08.18 260 (З) 35000 м    9/1 1000 м верхняя 
[Sc|Ci sp]
+24.4 +14.6 54 +33  1011.8  0.2  743  272           
18 15.08.18 260 (З) 21000 м    9/9 1000 м 
[Sc]
+21.1 +15.5 70 +31  1013  0.9  743  275    +25.1       
21 15.08.18 260 (З) 35000 м    9/9 1000 м 
[Sc]
+18.7 +15.3 81 +29  1014.1  0.9  744  277           
00 16.08.18 250 (З) 35000 м    ясно 
+16.7 +14.8 89 +27  1015  0.7  745  280           
06 16.08.18 050 (СВ) 23000 м    10/10 150 м 
[Frnb]
+17.3 +16 92 +30  1017.1  1.4  746  279  +15.1         
09 16.08.18 350 (С) 35000 м    10/10 360 м 
[Frnb]
+18.3 +15.5 84 +29  1018.3  1.2  747  279           
12 16.08.18 210 (ЮЗ) 35000 м    8/8 750 м кучево-дожд. 
[Cb calv]
+21.3 +15 67 +30  1018.6  0.6  748  276           
15 16.08.18 340 (С) 35000 м    8/8 600 м кучево-дожд. 
[Cb calv]
+22.2 +15 64 +31  1018.4  -0.1  748  275           
18 16.08.18 350 (С) 27000 м    3/3 1000 м 
[Sc]
+18.7 +15.7 83 +30  1019.2  0.5  748  279    +23.2       
21 16.08.18 350 (С) 20000 м    ясно 
+16.6 +15.9 96 +28  1020.1  0.7  748  281           
00 17.08.18 тихо ()   4700 м  дымка  ясно 
+15.1 +14.7 97 +23  1020.8  0.5  749  283           
06 17.08.18 280 (З) 30000 м  {туман}  6/6 1000 м 
[Sc]
+17.4 +15.7 90 +28  1021.3  0.3  749  280  +14.2         
09 17.08.18 230 (ЮЗ) 35000 м    9/9 750 м 
[Sc]
+22.6 +15.7 65 +33  1021.1  0.2  749  276           
12 17.08.18 230 (ЮЗ) 35000 м    6/6 1000 м 
[Sc]
+25.2 +15.1 54 +34  1020  -0.8  749  273           
15 17.08.18 220 (ЮЗ) 35000 м    6/6 1000 м 
[Sc]
+23.9 +15 57 +33  1019  -1.1  748  274           
18 17.08.18 080 (В) 35000 м    1/1 600 м 
[Sc]
+20.8 +15.8 73 +31  1019.3  748  277    +25.9       
Время (UTC), дата Ветер
(°,м/с) 
Видим.   Явления Облачность Т
(°С)
Тd
(°С)
f(%) Тe
(°С)
Pmin
(гПа)
dP
(гПа)
Po
(мм)
O2
(г/м3)
Тmin Tmax R s Состояние
почвы

Для получения пояснительной информации подведите курсор к названию столбца.

ПОГОДА в Борисове - архив

Всё, что Вы хотите узнать о погоде в Борисове - удобно и подробно!

Выберите нужную дату (начиная с 1 января 2015* года) и нажмите кнопку "Найти".
Будут отображены архивные сводки погоды по пункту Борисов, начиная с указанной даты.


Отображать данные в формате CSV (для использования в таблицах Excel)


Внимание! Наш архив погоды предназначен исключительно для личного некоммерческого использования в познавательных целях. Если Вам необходимы официальные справки о состоянии погоды (для производственных, юридических, коммерческих и т.п. целей), обращайтесь в органы Росгидромета.

*Примечание: данная дата относится к архиву по метеостанциям СССР (Россия, СНГ, Балтия).
Архив по метеостанциям Зарубежной Европы и Азии (кроме Китая) хранится 10 дней, по другим регионам земного шара (Китай, Африка, Америка, Австралия, Океания) - 1 день.

Борисов - район местоположения метеостанции


Название, широта, долгота, высота метеостанции:
Борисов 54.3°ш. 28.5°д. 189 м над ур. моря [Беларусь]

Дополнительная информация

В oтличие oт бoльшинства пoгoдных сайтoв мы публикуем пoдрoбную метеoинфoрмацию в детальнoм прoфессиoнальнoм фoрмате.

Характеристики температуры и влажнoсти вoздуха измеряются на высoте 2 м в тени вдали oт зданий и деревьев.
Скoрoсть ветра измеряется на высoте 10 м (на урoвне рoста челoвека скoрoсть ветра ниже в 1.5-2 раза). Если метеoстанция нахoдится в гoрoде или в лесу, тo скoрoсть ветра занижена на 2-4 м/с пo сравнению с oткрытым местoм. Скoрoсть ветра над акватoриями крупных рек и oзёр, а также на вершинах хoлмoв на 2-5 м/с выше, чем в oбычных услoвиях.
Атмoсфернoе давление в разных тoчках местнoсти мoжет значительнo oтличаться oт давления на метеoстанции, в зависимoсти oт услoвий рельефа (при пoдъёме на 10 м давление пoнижается примернo на 1 мм рт.ст.).